Wind_Speed
55 62 66 68 70 71 74 76 77 80 84 89 89 87 93 95 99 97 93 93 86 86 89 92 95 98 98 99 104 103 105 104 101 96 93 93 87 90 83 57 56 56 60 51
60 66 70 72 75 78 80 81 81 81 89 94 94 91 98 101 102 104 104 102 102 100 97 98 102 106 109 110 107 106 108 112 111 108 99 88 81 84 71 49 56 61 50 41
65 72 75 74 76 79 83 89 90 93 93 98 103 95 103 103 109 108 106 108 111 113 113 112 111 115 114 113 114 116 116 103 99 96 90 80 74 70 60 45 53 56 40 28
72 78 79 81 84 89 87 94 95 97 100 100 101 104 99 104 109 113 116 115 113 115 116 118 119 115 114 118 120 108 103 94 90 83 78 68 60 53 56 49 51 50 51 47
78 81 84 84 87 93 94 96 99 99 103 108 99 116 111 114 112 115 120 120 124 125 128 125 118 121 114 108 100 91 87 82 75 71 69 64 57 50 54 52 54 53 60 65
83 88 92 93 97 100 100 100 103 108 114 115 116 125 126 126 124 124 129 128 127 125 126 120 113 106 100 92 86 84 75 68 63 62 60 59 53 47 51 50 48 63 65 71
84 91 97 100 102 104 108 114 117 117 120 122 122 125 126 132 134 133 133 132 125 115 104 101 97 90 88 83 75 74 66 62 59 55 53 52 49 48 48 53 45 51 60 62
90 93 102 107 107 106 109 118 126 133 133 130 122 129 131 132 136 132 123 120 112 101 96 88 86 80 76 71 66 64 59 51 51 50 50 50 48 46 47 54 55 54 64 63
99 98 104 108 114 117 118 123 130 139 137 143 142 142 148 140 130 124 114 103 95 87 82 75 71 73 70 62 56 53 51 47 48 46 45 46 47 45 47 58 61 58 66 64
107 106 105 110 117 124 131 135 137 137 143 147 138 136 133 127 120 111 101 92 81 70 69 70 65 65 60 56 49 45 47 43 45 43 42 44 45 42 49 60 70 73 75 77
115 119 116 121 128 133 134 138 139 143 142 146 141 132 114 111 105 98 87 79 73 69 61 64 59 56 54 48 45 42 41 39 41 41 41 41 41 41 48 64 74 75 81 84
123 130 130 130 132 137 140 140 142 144 135 131 126 118 112 102 90 82 75 68 65 64 61 56 54 52 48 44 42 39 39 36 35 41 42 37 38 41 46 66 72 78 80 77
129 137 143 143 139 143 142 134 136 142 135 118 114 102 95 89 83 74 66 62 63 58 59 54 50 47 46 39 38 37 35 32 36 41 40 37 36 38 44 59 68 82 83 81
137 136 137 145 143 145 134 127 133 127 119 112 96 90 86 82 76 72 64 59 55 53 52 49 45 41 41 37 35 34 32 32 40 42 40 41 43 46 51 54 61 82 87 85
140 137 139 136 133 134 127 127 120 111 104 97 86 83 80 76 74 68 60 53 53 46 44 42 40 38 37 36 34 33 32 36 42 44 50 50 50 42 49 60 63 76 93 88
136 136 135 124 124 122 115 117 107 98 92 86 83 79 74 70 65 59 53 49 47 43 40 38 37 36 36 36 33 32 34 44 49 56 61 64 62 62 53 62 69 74 83 88
132 132 128 117 115 110 105 98 93 89 86 80 75 70 66 61 55 51 49 45 41 38 36 32 32 33 33 34 33 33 43 51 57 66 74 72 71 65 61 65 71 71 81 89
129 124 122 114 106 96 95 90 88 83 78 73 66 60 56 53 49 46 45 42 36 33 29 28 30 32 33 35 34 36 49 56 62 69 77 80 78 74 72 76 76 78 80 87
127 123 114 103 97 92 92 86 79 76 71 63 57 52 49 45 43 42 41 36 30 28 25 27 29 31 34 33 35 41 54 59 65 71 78 83 81 78 74 78 78 79 82 79
115 106 103 100 93 88 85 77 72 68 59 53 50 45 40 40 43 38 34 30 26 25 24 27 26 29 32 31 36 46 57 62 67 75 81 75 77 76 72 79 81 82 79 81
101 97 95 93 89 81 74 67 63 55 49 48 43 39 33 37 38 32 26 24 23 23 23 22 24 26 30 32 38 49 57 64 69 75 69 68 74 73 66 76 76 76 77 78
99 93 89 82 75 70 62 55 52 47 43 40 37 33 30 34 32 24 20 22 21 19 16 19 21 24 28 30 38 50 57 62 68 69 67 70 71 71 70 77 78 78 73 70
93 86 77 70 67 56 51 47 45 41 38 32 33 25 30 30 21 19 20 19 15 13 15 17 20 24 28 32 40 49 53 59 66 66 64 73 68 70 71 71 74 77 63 63
82 73 66 60 55 48 43 39 38 36 30 28 26 22 28 18 15 17 14 9 13 14 15 15 18 25 28 34 40 47 50 58 64 65 69 75 73 65 68 70 73 70 66 56
73 61 58 53 46 41 37 35 34 28 23 23 20 22 20 11 12 11 8 11 10 11 11 13 19 25 31 36 42 47 53 59 66 69 74 77 73 63 69 68 71 65 61 52
60 55 51 44 38 37 33 29 24 18 21 21 16 20 10 8 9 8 8 8 9 9 12 17 23 29 35 40 45 51 57 67 77 73 78 74 70 66 65 67 67 63 62 52
Wind_Direction
303 304 306 305 305 302 298 298 300 298 298 300 300 303 301 301 299 297 295 292 289 287 287 286 285 285 284 282 284 283 284 286 285 284 284 280 279 284 285 269 259 248 240 251
302 300 300 301 300 299 300 302 299 297 296 297 295 298 298 297 297 295 293 294 293 291 285 282 280 279 282 283 283 287 286 283 282 282 280 282 277 278 277 260 249 234 237 248
299 296 299 299 298 298 298 296 295 297 295 295 294 296 294 292 293 294 292 291 289 289 289 286 283 282 284 285 283 283 285 282 279 279 278 276 275 275 265 242 240 226 216 201
296 298 300 301 302 301 300 297 295 295 295 294 292 295 289 290 290 290 290 288 287 289 289 289 286 285 284 285 281 284 281 281 278 276 277 271 269 259 257 233 225 216 210 200
298 299 297 298 299 299 300 297 296 294 292 295 291 294 295 292 289 288 290 290 287 284 286 288 287 288 285 286 283 282 281 278 274 271 271 268 263 252 243 232 212 211 206 204
298 300 299 299 299 302 300 298 296 295 295 297 295 296 299 295 292 291 291 291 290 289 288 288 286 286 286 285 283 280 278 275 271 268 265 262 258 243 231 222 209 202 203 200
294 297 298 299 300 299 298 295 294 293 293 294 295 296 294 295 294 291 290 293 290 287 287 282 284 285 283 283 281 277 272 270 268 262 257 255 249 237 225 213 198 200 198 200
296 297 297 297 297 295 293 293 294 296 297 298 297 297 295 297 294 292 293 295 291 291 288 286 286 283 280 280 276 276 272 268 262 256 251 248 244 228 213 205 191 192 197 198
294 295 296 296 296 296 295 295 296 296 297 299 300 300 300 299 299 298 296 295 293 290 288 284 282 280 281 280 272 269 268 262 254 248 244 243 235 226 208 199 187 186 189 187
295 295 295 295 296 295 295 298 297 296 296 299 300 300 298 299 300 298 297 296 294 286 282 281 278 277 276 276 274 269 262 254 246 242 238 233 228 219 201 196 189 186 187 188
297 298 299 299 299 298 298 299 298 298 300 299 301 301 299 299 298 297 296 295 291 286 281 278 278 274 273 269 270 264 255 246 240 234 228 224 219 210 201 194 186 185 188 191
299 299 300 300 298 297 298 298 297 299 300 300 299 301 299 299 297 295 294 291 289 285 280 273 273 274 270 268 265 257 250 241 228 226 222 213 208 204 196 192 189 187 188 190
298 299 299 299 298 298 298 298 298 297 299 300 301 299 299 298 298 297 292 287 282 279 277 278 275 271 268 263 256 248 240 226 219 214 211 203 197 193 191 192 195 190 189 192
298 298 298 299 300 299 298 298 297 299 300 300 299 299 298 300 298 293 290 288 283 277 274 273 270 266 262 255 248 237 229 214 208 203 196 188 184 184 182 191 194 193 191 193
298 298 296 298 299 299 301 299 300 300 300 300 300 300 298 297 295 292 291 287 280 275 272 269 266 261 256 251 242 231 216 202 200 191 183 177 173 166 180 184 194 194 195 195
299 298 298 301 302 302 303 301 301 300 299 300 300 299 298 295 292 291 289 282 279 276 274 270 266 261 252 246 238 224 203 197 194 183 178 170 162 171 183 185 191 193 194 196
302 301 301 303 303 304 302 302 301 300 300 300 300 298 295 293 291 287 283 282 278 276 273 271 263 253 244 236 227 208 195 194 190 186 177 172 166 174 179 189 190 196 195 193
304 304 304 303 303 304 303 301 300 300 300 300 298 295 292 290 289 287 284 282 281 279 275 259 247 240 230 222 213 197 194 193 191 187 181 174 176 181 184 189 188 195 195 196
305 306 304 303 302 303 301 300 301 299 300 298 295 292 291 290 285 281 281 286 281 272 260 249 239 231 226 216 204 188 193 195 191 188 179 178 182 188 187 188 190 194 192 197
305 304 303 302 303 301 300 301 300 298 298 294 290 291 290 284 279 280 282 280 272 264 248 242 235 227 222 208 194 185 192 192 189 190 180 187 187 190 194 191 190 195 193 197
302 302 302 302 301 300 301 299 296 296 294 289 292 288 285 277 281 285 282 272 261 253 246 239 229 220 215 203 189 185 190 190 188 188 190 191 190 192 191 192 192 192 195 199
302 302 301 301 299 298 298 296 293 292 290 290 287 287 283 279 281 283 267 257 257 256 248 226 217 210 207 196 186 185 191 187 189 187 189 188 190 189 187 190 192 192 194 198
302 301 302 302 298 298 294 291 291 288 284 288 283 286 275 278 280 266 259 258 258 240 224 213 204 198 195 187 182 186 189 183 184 185 183 184 186 187 188 189 189 190 186 194
299 302 303 299 297 294 292 290 283 281 286 280 283 271 269 274 262 259 261 237 223 221 212 199 187 186 184 180 178 181 181 179 177 178 176 183 184 187 187 188 187 190 188 190
299 303 295 295 296 289 284 279 277 281 281 275 274 259 268 261 249 246 223 219 210 201 191 174 172 173 177 178 174 172 174 173 171 176 175 184 184 187 184 188 190 189 187 182
303 294 293 295 286 279 277 277 271 273 267 262 252 253 253 233 230 213 206 197 190 173 157 162 164 167 170 171 169 166 166 166 173 176 178 184 183 182 182 187 191 190 185 182
Height
10818 10808 10801 10796 10791 10787 10782 10780 10778 10768 10758 10750 10748 10748 10737 10727 10717 10711 10707 10701 10704 10703 10701 10697 10689 10679 10676 10672 10672 10670 10664 10660 10664 10672 10671 10672 10675 10668 10673 10683 10685 10685 10687 10692
10805 10796 10788 10784 10778 10770 10761 10757 10755 10755 10740 10729 10729 10737 10719 10709 10695 10686 10681 10676 10671 10670 10674 10673 10666 10655 10648 10643 10640 10637 10636 10630 10627 10632 10637 10642 10644 10647 10651 10661 10662 10665 10683 10687
10791 10779 10773 10769 10762 10756 10748 10737 10732 10724 10725 10712 10698 10716 10698 10686 10668 10661 10658 10649 10641 10638 10638 10637 10632 10620 10614 10610 10611 10607 10604 10604 10601 10598 10603 10614 10620 10623 10623 10636 10638 10652 10666 10677
10773 10761 10755 10745 10737 10726 10727 10711 10706 10700 10692 10690 10677 10675 10680 10664 10649 10636 10625 10620 10614 10606 10603 10598 10590 10582 10580 10575 10577 10576 10572 10571 10569 10570 10574 10579 10592 10601 10598 10608 10619 10635 10649 10654
10751 10745 10736 10730 10718 10704 10701 10689 10681 10675 10667 10661 10666 10626 10645 10634 10627 10602 10599 10595 10586 10575 10564 10557 10550 10544 10541 10537 10539 10541 10539 10539 10541 10544 10547 10552 10563 10576 10575 10585 10602 10620 10625 10636
10734 10722 10709 10706 10695 10681 10670 10661 10654 10645 10632 10635 10623 10604 10604 10591 10584 10578 10563 10559 10550 10541 10529 10517 10509 10510 10507 10504 10506 10508 10510 10511 10516 10519 10523 10529 10538 10549 10554 10567 10583 10597 10607 10620
10724 10709 10690 10680 10673 10659 10643 10627 10620 10625 10618 10613 10608 10587 10568 10553 10544 10539 10534 10527 10508 10503 10497 10492 10485 10480 10472 10474 10478 10476 10483 10487 10492 10496 10501 10508 10517 10527 10536 10549 10567 10580 10594 10606
10707 10699 10677 10659 10651 10645 10637 10612 10586 10572 10575 10575 10583 10560 10543 10527 10506 10495 10492 10482 10472 10464 10453 10454 10447 10449 10448 10454 10455 10455 10460 10465 10470 10476 10483 10489 10498 10508 10520 10532 10548 10562 10575 10589
10680 10683 10662 10643 10619 10605 10610 10592 10566 10534 10545 10525 10528 10516 10484 10478 10468 10452 10450 10445 10439 10431 10426 10426 10423 10422 10424 10429 10435 10435 10437 10443 10449 10456 10465 10473 10480 10491 10505 10518 10534 10547 10559 10576
10648 10649 10644 10625 10607 10587 10568 10562 10545 10532 10503 10494 10498 10488 10461 10449 10432 10421 10414 10406 10409 10409 10400 10396 10401 10402 10404 10408 10411 10415 10416 10423 10431 10439 10448 10456 10465 10476 10489 10499 10513 10524 10540 10553
10611 10606 10617 10598 10576 10557 10548 10523 10504 10487 10487 10452 10442 10446 10434 10420 10403 10393 10390 10385 10379 10374 10377 10375 10379 10383 10386 10390 10393 10396 10400 10407 10416 10424 10433 10442 10452 10463 10476 10486 10501 10514 10527 10540
10586 10567 10566 10567 10551 10523 10511 10492 10468 10450 10449 10432 10410 10410 10391 10383 10378 10370 10367 10366 10359 10353 10353 10359 10362 10364 10366 10372 10375 10379 10384 10394 10404 10412 10420 10432 10443 10454 10465 10478 10490 10508 10518 10531
10560 10542 10522 10521 10518 10491 10479 10461 10439 10418 10409 10402 10387 10372 10362 10354 10348 10347 10345 10342 10336 10337 10333 10337 10341 10344 10347 10355 10358 10363 10370 10381 10389 10398 10410 10424 10436 10448 10458 10472 10483 10496 10508 10522
10529 10517 10494 10475 10463 10449 10450 10429 10408 10390 10378 10366 10358 10350 10332 10328 10325 10318 10319 10319 10316 10317 10316 10319 10323 10328 10331 10336 10342 10350 10359 10369 10375 10388 10402 10415 10425 10436 10450 10464 10472 10483 10498 10512
10493 10488 10466 10454 10431 10419 10405 10385 10379 10362 10346 10338 10333 10322 10313 10307 10297 10295 10297 10297 10293 10296 10298 10301 10305 10310 10314 10319 10327 10335 10347 10356 10366 10380 10392 10405 10419 10429 10444 10454 10467 10477 10486 10500
10457 10446 10427 10428 10395 10384 10374 10352 10343 10333 10324 10315 10306 10299 10292 10283 10278 10277 10277 10276 10276 10278 10281 10285 10289 10294 10298 10302 10312 10325 10338 10344 10356 10368 10381 10392 10408 10420 10433 10442 10456 10467 10482 10493
10426 10407 10393 10395 10370 10359 10339 10328 10315 10306 10297 10293 10285 10279 10268 10263 10263 10260 10257 10260 10262 10264 10267 10272 10275 10278 10283 10290 10300 10312 10322 10330 10345 10355 10369 10383 10398 10405 10417 10430 10447 10462 10478 10492
10391 10374 10358 10351 10339 10332 10313 10304 10294 10285 10276 10269 10264 10257 10252 10248 10247 10244 10242 10244 10249 10250 10255 10257 10260 10263 10270 10277 10288 10301 10310 10319 10333 10345 10359 10375 10386 10394 10405 10418 10437 10453 10470 10483
10354 10340 10327 10319 10311 10304 10286 10280 10274 10262 10257 10250 10245 10241 10238 10235 10232 10230 10230 10233 10236 10239 10242 10244 10247 10251 10257 10267 10278 10290 10298 10310 10323 10338 10353 10366 10379 10391 10402 10418 10434 10448 10467 10478
10337 10317 10299 10287 10286 10275 10266 10259 10250 10242 10239 10233 10229 10228 10226 10220 10216 10220 10222 10223 10226 10227 10230 10231 10236 10241 10247 10258 10270 10280 10288 10302 10316 10331 10346 10363 10377 10390 10405 10415 10430 10446 10462 10471
10304 10294 10281 10266 10257 10251 10246 10239 10231 10226 10223 10216 10216 10214 10214 10208 10207 10211 10213 10214 10215 10217 10219 10224 10228 10233 10239 10250 10262 10272 10280 10294 10309 10326 10345 10361 10375 10389 10403 10416 10429 10446 10460 10473
10272 10265 10254 10246 10240 10230 10226 10221 10214 10210 10206 10205 10204 10204 10203 10199 10200 10204 10204 10204 10206 10210 10214 10217 10221 10227 10234 10244 10256 10267 10275 10289 10305 10324 10342 10360 10374 10387 10398 10407 10426 10445 10462 10472
10245 10232 10231 10227 10215 10214 10208 10203 10198 10196 10194 10196 10193 10196 10192 10193 10196 10195 10196 10198 10202 10204 10207 10212 10217 10222 10228 10238 10249 10262 10273 10289 10305 10322 10340 10357 10373 10383 10394 10411 10428 10444 10460 10474
10216 10218 10212 10205 10199 10197 10194 10190 10185 10183 10186 10185 10186 10188 10186 10189 10190 10189 10191 10194 10196 10199 10203 10207 10213 10219 10227 10236 10246 10257 10272 10287 10304 10321 10340 10355 10371 10382 10398 10414 10430 10444 10461 10475
10198 10201 10192 10188 10187 10182 10179 10176 10174 10177 10178 10177 10180 10181 10182 10185 10184 10185 10188 10190 10193 10196 10200 10206 10212 10218 10226 10234 10244 10256 10273 10288 10306 10322 10341 10354 10371 10384 10401 10414 10429 10446 10463 10477
10189 10181 10177 10176 10172 10168 10167 10166 10167 10170 10169 10171 10175 10175 10179 10180 10180 10183 10186 10189 10192 10196 10201 10206 10212 10218 10225 10234 10245 10259 10276 10293 10307 10325 10342 10355 10369 10385 10401 10415 10430 10447 10463 10477